Location: Mississauga
(43.5802°N, 79.6166°W)
Time: 10:37:43
(UTC-04:00)

Cosmos 1437 Rocket - Visible Passes

Search period start: 28 July 2016 00:00
Search period end: 07 August 2016 00:00
Orbit: 509 x 566 km, 81.2° (Epoch: 27 July)

Date Brightness Start Highest point End Pass type
(mag) Time Alt. Az. Time Alt. Az. Time Alt. Az.
02 Aug 3.3 05:31:29 10° S 05:35:16 61° E 05:39:09 10° NNE visible
03 Aug 3.2 05:23:20 10° S 05:27:07 62° E 05:31:01 10° NNE visible
04 Aug 3.2 05:15:10 10° S 05:18:58 63° E 05:22:52 10° NNE visible
05 Aug 3.2 05:07:00 10° S 05:10:49 63° E 05:14:43 10° NNE visible
06 Aug 3.1 04:58:50 10° S 05:02:39 64° E 05:06:35 10° NNE visible
